Regional Weather Roundup
Issued by NWS Albany, NY

Home | Current Version | Previous Version | Text Only | Print | Product List | Glossary On
Versions: 1 2 3 4 5 6 7 8 9 10 11 12 13 14 15 16 17 18 19 20 21 22 23 24 25 26 27 28
000
ASUS41 KALY 110110
RWRALY

NEW YORK STATE HOURLY WEATHER ROUNDUP
NATIONAL WEATHER SERVICE ALBANY NY
800 PM EST SAT DEC 10 2016

NOTE: "FAIR" INDICATES FEW OR NO CLOUDS BELOW 12,000 FEET WITH NO
SIGNIFICANT WEATHER AND/OR NO OBSTRUCTIONS TO VISIBILITY.

NYZ032-033-038>043-046>054-057>066-NYZ062>081-082-084-110200-
EAST


CITY           SKY/WX    TMP DP  RH WIND       PRES   REMARKS
ALBANY         PTCLDY    18  11  74 W6        30.40R WCI  10
GLENS FALLS    CLEAR     16   7  67 CALM      30.38R
POUGHKEEPSIE   CLEAR     21  14  74 CALM      30.41R
NEWBURGH       MOCLDY    25  23  93 W8        30.41R WCI  16
MONTGOMERY     CLOUDY    25  20  81 SW6       30.40R WCI  18
WHITE PLAINS   CLEAR     28  20  71 W5        30.40R WCI  23
ISLIP          PTCLDY    27  19  72 W7        30.42R WCI  19
NEW YORK CITY  PTCLDY    35  20  54 NW13      30.44R WCI  26
CENTRAL PARK   CLOUDY    32  19  58 W5        30.45R WCI  27
$$

NYZ005>009-017-018-044>046-055-056-110200-
CENTRAL


CITY           SKY/WX    TMP DP  RH WIND       PRES   REMARKS
FULTON         LGT SNOW  24  22  91 SE3       30.37S VSB 3/4
SYRACUSE       LGT SNOW  23  22  96 CALM      30.38R VSB 1
ROME           CLOUDY    19  18  95 E3        30.39S
ELMIRA         CLEAR     12  10  92 CALM      30.38R
BINGHAMTON     MOCLDY    18  16  92 SW6       30.31R WCI  10
MONTICELLO     MOCLDY    19  18  93 W5        30.35R WCI  13
$$

NYZ026>034-041>043-087-110200-
NORTH


CITY           SKY/WX    TMP DP  RH WIND       PRES   REMARKS
WATERTOWN      CLOUDY    22  17  81 S3        30.36F
FORT DRUM      NOT AVBL
OGDENSBURG     FAIR      14  12  92 CALM      30.37S
MASSENA        CLEAR     12   7  80 CALM      30.38S
SARANAC LAKE   CLEAR      1  -3  83 CALM      30.25R
PLATTSBURGH    CLOUDY    19  11  70 CALM      30.38R
$$

NYZ001>004-010>016-019>021-085-110200-
WEST


CITY           SKY/WX    TMP DP  RH WIND       PRES   REMARKS
NIAGARA FALLS  PTCLDY    24  12  60 W10       30.37F WCI  14
BUFFALO        PTCLDY    25  11  55 W12       30.37F WCI  14
DUNKIRK        LGT SNOW  25  21  85 SW14      30.39R VSB 1   WCI  13
JAMESTOWN      CLOUDY    19  16  86 SW18      30.32S WCI   4
WELLSVILLE     LGT SNOW  21  16  81 SW8       30.31S WCI  11
ROCHESTER      PTCLDY    23  12  62 W9        30.38R WCI  13
PENN YAN       MOCLDY    23  15  71 SW9       30.36S WCI  13
$$

             KEY
       WCI = WIND CHILL INDEX
       VSB = VISIBILITY
       HX  = HEAT INDEX
$$




USA.gov is the U.S. government's official web portal to all federal, state and local government web resources and services.